Location: Poughquag
(41.6090°N, 73.6820°W)
Time: 08:55:14
(UTC-05:00)

Vanguard 2 Rocket - Visible Passes

Search period start: 14 December 2025 00:00
Search period end: 24 December 2025 00:00
Orbit: 553 x 3287 km, 32.9° (Epoch: 13 December)

Date Brightness Start Highest point End Pass type
(mag) Time Alt. Az. Time Alt. Az. Time Alt. Az.
14 Dec 11.4 04:08:18 10° SSE 04:13:27 11° SE 04:18:37 10° ESE visible
14 Dec 11.0 06:11:38 10° SSW 06:28:10 34° SSE 06:42:40 10° E visible
15 Dec 11.1 05:07:23 10° S 05:21:37 26° SE 05:35:21 10° E visible
16 Dec 11.1 04:04:59 10° SSE 04:15:24 17° SE 04:26:06 10° E visible
16 Dec 10.7 06:12:48 10° SSW 06:30:20 41° SSE 06:46:03 10° E visible
17 Dec 10.9 05:08:00 10° SSW 05:23:36 33° SE 05:39:05 10° E visible
18 Dec 10.9 04:04:30 10° S 04:17:15 24° SE 04:30:50 10° E visible
18 Dec 10.5 06:14:24 10° SW 06:32:28 48° SSE 06:49:11 10° E visible
19 Dec 11.0 03:03:23 10° SSE 03:11:23 15° SE 03:20:01 10° ESE visible
19 Dec 10.6 05:09:15 10° SSW 05:25:33 40° SSE 05:42:22 10° E visible
20 Dec 10.7 04:05:08 10° SSW 04:19:04 30° SE 04:34:36 10° E visible
20 Dec 10.3 06:16:20 10° SW 06:34:38 54° SSE 06:52:07 10° E visible
21 Dec 10.7 03:02:29 10° S 03:13:06 20° SE 03:25:17 10° E visible
21 Dec 10.3 05:10:56 10° SW 05:27:32 46° SSE 05:45:21 10° E visible
22 Dec 10.9 02:04:05 10° SE 02:07:41 11° SE 02:11:30 10° ESE visible
22 Dec 10.4 04:06:25 10° SSW 04:20:53 37° SE 04:37:49 10° E visible
22 Dec 10.1 06:18:31 10° WSW 06:36:50 59° SSE 06:54:57 10° E visible
23 Dec 10.5 03:03:36 11° S 03:14:49 26° SE 03:29:11 10° E visible
23 Dec 10.1 05:12:57 10° SW 05:29:35 52° SSE 05:48:10 10° E visible
